"startDT [UTC]","vpos","CH4 [ppm]","stdev(CH4) [ppm]","CO2 [ppm]","stdev(CO2) [ppm]","H2O_reported [%]","stdev(H2O_reported)","CavityPressure [torr]","CavityTemp [C]","OutletValve","CH4_dry [ppm]","CO2_dry [ppm]","DasTemp [C]","EtalonTemp [C]","WarmBoxTemp [C]","MPVPosition","T_ECpre [C]","T_EC1 [C]","T_EC2 [C]","p_inlet [hPa]","p_in [hPa]","p_out [hPa]","T_inlet [C]","RH_inlet [%]","dwpt_inlet [C]","T_vent [C]","RH_vent [%]","dwpt_vent [C]","flow_vent [l min-1]","flow_inlet [l min-1]","dwpt_sample [C]","T_room [C]"
2016-10-30 00:00:00,0.0,1.94847,0.00029,404.682,0.027,0.1896,0.0022,140.002,45.000,31231.91090,1.95212,405.610,30.247,45.073,45.000,0.00,0.07,-272.84,-272.88,-0,509,-933,14.1,9.0,-18.4,14.5,8.9,-18.1,0.57,1.96,-15.6,20.9
2016-10-30 00:01:00,0.0,1.94846,0.00046,404.657,0.024,0.1906,0.0017,140.004,45.000,31233.15279,1.95212,405.589,30.228,45.073,45.000,0.00,0.07,-272.85,-272.88,-0,509,-933,14.1,9.0,-18.3,14.5,8.9,-18.1,0.57,1.92,-15.6,20.9
2016-10-30 00:02:00,0.0,1.94860,0.00031,404.631,0.038,0.1914,0.0017,140.000,45.000,31232.27459,1.95229,405.566,30.195,45.073,45.000,0.00,0.07,-272.84,-272.88,0,509,-933,14.1,9.1,-18.2,14.5,9.0,-18.0,0.57,2.01,-15.6,20.9
2016-10-30 00:03:00,0.0,1.94870,0.00041,404.667,0.033,0.1891,0.0022,139.998,45.000,31229.76133,1.95232,405.590,30.220,45.073,45.000,0.00,0.07,-272.85,-272.87,0,509,-933,14.1,9.0,-18.3,14.5,8.9,-18.1,0.57,2.09,-15.6,20.9
2016-10-30 00:04:00,0.0,1.94883,0.00032,404.665,0.039,0.1918,0.0020,140.000,45.000,31230.09344,1.95254,405.604,30.243,45.073,45.000,0.00,0.07,-272.85,-272.88,0,509,-933,14.1,9.1,-18.2,14.5,9.0,-18.0,0.57,2.04,-15.6,20.9
2016-10-30 00:05:00,0.0,1.94866,0.00030,404.614,0.027,0.1933,0.0016,140.000,45.000,31230.77118,1.95238,405.558,30.236,45.073,45.000,0.00,0.07,-272.85,-272.88,-0,509,-932,14.1,9.1,-18.1,14.5,9.0,-18.0,0.57,1.93,-15.6,20.9
2016-10-30 00:06:00,0.0,1.94830,0.00036,404.627,0.035,0.1941,0.0016,139.999,45.000,31232.47735,1.95206,405.575,30.247,45.073,45.000,0.00,0.07,-272.84,-272.88,-0,509,-932,14.1,9.2,-18.1,14.5,9.1,-17.9,0.57,1.93,-15.6,20.9
2016-10-30 00:07:00,0.0,1.94867,0.00037,404.642,0.025,0.1925,0.0020,139.999,45.000,31231.08150,1.95237,405.582,30.250,45.073,45.000,0.00,0.07,-272.85,-272.88,-0,509,-932,14.1,9.2,-18.1,14.5,9.1,-17.9,0.57,2.04,-15.6,21.0
2016-10-30 00:08:00,0.0,1.94872,0.00033,404.626,0.040,0.1929,0.0016,140.001,45.000,31232.22640,1.95240,405.570,30.252,45.073,45.000,0.00,0.07,-272.86,-272.89,0,509,-932,14.1,9.2,-18.1,14.5,9.1,-17.9,0.57,2.09,-15.6,21.0
2016-10-30 00:09:00,0.0,1.94865,0.00039,404.649,0.037,0.1931,0.0023,139.999,45.000,31229.09972,1.95240,405.593,30.253,45.073,45.000,0.00,0.07,-272.85,-272.89,0,509,-933,14.1,9.1,-18.2,14.5,9.0,-17.9,0.57,1.99,-15.6,21.0
2016-10-30 00:10:00,0.0,1.94848,0.00033,404.596,0.028,0.1931,0.0020,139.998,45.000,31229.92092,1.95219,405.539,30.274,45.073,45.000,0.00,0.07,-272.84,-272.88,-0,509,-932,14.1,9.2,-18.1,14.5,9.1,-17.9,0.57,1.92,-15.6,21.0
2016-10-30 00:11:00,0.0,1.94842,0.00036,404.609,0.031,0.1933,0.0018,140.001,45.000,31232.00456,1.95214,405.554,30.256,45.073,45.000,0.00,0.07,-272.85,-272.88,-0,509,-932,14.1,9.2,-18.1,14.5,9.1,-17.9,0.57,1.97,-15.6,21.0
2016-10-30 00:12:00,0.0,1.94843,0.00038,404.650,0.034,0.1926,0.0017,139.998,45.000,31229.13424,1.95214,405.590,30.253,45.073,45.000,0.00,0.07,-272.85,-272.88,-1,509,-932,14.1,9.2,-18.1,14.5,9.1,-17.9,0.57,2.08,-15.6,21.0
2016-10-30 00:13:00,0.0,1.94875,0.00046,404.672,0.025,0.1911,0.0017,140.002,45.000,31230.36753,1.95242,405.606,30.259,45.073,45.000,0.00,0.07,-272.84,-272.87,-0,509,-932,14.1,9.1,-18.2,14.5,9.0,-18.0,0.57,2.05,-15.6,20.9
2016-10-30 00:14:00,0.0,1.94868,0.00039,404.642,0.052,0.1923,0.0017,140.000,45.000,31229.60002,1.95239,405.581,30.294,45.073,45.000,0.00,0.07,-272.84,-272.87,-0,509,-932,14.1,9.1,-18.2,14.5,9.0,-18.0,0.57,1.93,-15.6,20.9
2016-10-30 00:15:00,0.0,1.94895,0.00041,404.634,0.037,0.1938,0.0015,140.000,45.000,31231.53303,1.95267,405.583,30.310,45.073,45.000,0.00,0.07,-272.85,-272.88,0,509,-932,14.1,9.2,-18.1,14.5,9.1,-17.9,0.57,1.93,-15.6,20.9
2016-10-30 00:16:00,0.0,1.94887,0.00035,404.624,0.038,0.1939,0.0016,140.000,45.000,31229.78961,1.95260,405.572,30.300,45.073,45.000,0.00,0.07,-272.85,-272.88,0,509,-932,14.1,9.2,-18.1,14.5,9.1,-17.9,0.57,2.04,-15.6,20.9
2016-10-30 00:17:00,0.0,1.94892,0.00023,404.664,0.032,0.1948,0.0013,140.003,45.000,31232.24659,1.95268,405.615,30.296,45.073,45.000,0.00,0.07,-272.84,-272.87,-0,509,-932,14.1,9.3,-18.0,14.5,9.1,-17.8,0.57,2.09,-15.6,20.9
2016-10-30 00:18:00,0.0,1.94889,0.00029,404.638,0.044,0.1968,0.0020,139.998,45.000,31229.24624,1.95267,405.600,30.293,45.073,45.000,0.00,0.07,-272.85,-272.89,-0,509,-932,14.1,9.3,-18.0,14.5,9.2,-17.7,0.57,1.98,-15.6,20.9
2016-10-30 00:19:00,0.0,1.94926,0.00044,404.621,0.025,0.1963,0.0017,140.002,45.000,31230.05899,1.95308,405.581,30.290,45.073,45.000,0.00,0.07,-272.84,-272.88,-0,509,-932,14.1,9.3,-18.0,14.5,9.2,-17.7,0.57,1.91,-15.6,20.9
2016-10-30 00:20:00,0.0,1.94904,0.00034,404.620,0.046,0.1959,0.0017,140.000,45.000,31229.20520,1.95278,405.577,30.295,45.073,45.000,0.00,0.07,-272.84,-272.88,-0,509,-933,14.0,9.3,-17.9,14.5,9.2,-17.7,0.57,1.98,-15.6,20.9
2016-10-30 00:21:00,0.0,1.94895,0.00031,404.613,0.029,0.1972,0.0018,139.999,45.000,31228.22544,1.95275,405.578,30.263,45.073,45.000,0.00,0.07,-272.85,-272.88,0,509,-932,14.1,9.3,-17.9,14.5,9.2,-17.7,0.57,2.08,-15.6,20.9
2016-10-30 00:22:00,0.0,1.94889,0.00033,404.655,0.028,0.1959,0.0022,140.001,45.000,31229.51211,1.95267,405.613,30.273,45.073,45.000,0.00,0.07,-272.85,-272.88,0,509,-932,14.1,9.3,-18.0,14.5,9.2,-17.7,0.57,2.05,-15.6,20.9
2016-10-30 00:23:00,0.0,1.94889,0.00031,404.635,0.023,0.1935,0.0013,139.998,45.000,31229.78670,1.95260,405.582,30.274,45.073,45.000,0.00,0.07,-272.84,-272.88,-0,509,-932,14.1,9.2,-18.1,14.5,9.1,-17.8,0.57,1.94,-15.6,21.0
2016-10-30 00:24:00,0.0,1.94886,0.00044,404.644,0.030,0.1942,0.0022,139.996,45.000,31229.75353,1.95262,405.592,30.302,45.073,45.000,0.00,0.07,-272.85,-272.88,-0,509,-932,14.1,9.2,-18.1,14.5,9.1,-17.9,0.57,1.94,-15.6,21.0
2016-10-30 00:25:00,0.0,1.94913,0.00047,404.636,0.035,0.1952,0.0015,140.000,45.000,31229.62328,1.95286,405.589,30.282,45.073,45.000,0.00,0.07,-272.86,-272.89,-0,509,-932,14.1,9.3,-18.0,14.5,9.1,-17.8,0.57,2.04,-15.6,21.0
2016-10-30 00:26:00,0.0,1.94886,0.00033,404.643,0.043,0.1962,0.0017,140.001,45.000,31230.64981,1.95265,405.601,30.250,45.073,45.000,0.00,0.07,-272.85,-272.88,0,509,-932,14.1,9.3,-18.0,14.5,9.2,-17.8,0.57,2.08,-15.6,21.0
2016-10-30 00:27:00,0.0,1.94929,0.00026,404.668,0.034,0.1965,0.0017,140.002,45.000,31231.56848,1.95307,405.629,30.251,45.073,45.000,0.00,0.07,-272.84,-272.88,0,509,-932,14.1,9.3,-17.9,14.5,9.2,-17.7,0.57,1.99,-15.6,21.0
2016-10-30 00:28:00,0.0,1.94937,0.00038,404.674,0.035,0.1948,0.0014,139.998,45.000,31230.76677,1.95315,405.627,30.257,45.073,45.000,0.00,0.07,-272.85,-272.88,0,509,-932,14.1,9.3,-18.0,14.5,9.2,-17.7,0.57,1.91,-15.6,21.0
2016-10-30 00:29:00,0.0,1.94917,0.00030,404.675,0.034,0.1954,0.0018,140.000,45.000,31232.63977,1.95291,405.630,30.271,45.073,45.000,0.00,0.07,-272.86,-272.88,-0,509,-932,14.1,9.3,-18.0,14.5,9.2,-17.8,0.57,2.00,-15.6,21.0
2016-10-30 00:30:00,0.0,1.94936,0.00040,404.680,0.034,0.1956,0.0015,139.999,45.000,31231.64407,1.95314,405.636,30.282,45.073,45.000,0.00,0.07,-272.85,-272.87,-0,509,-932,14.1,9.3,-18.0,14.5,9.2,-17.7,0.57,2.09,-15.6,21.0
2016-10-30 00:31:00,0.0,1.94910,0.00038,404.655,0.034,0.1968,0.0013,140.001,45.000,31230.59653,1.95290,405.617,30.305,45.073,45.000,0.00,0.07,-272.84,-272.88,-0,509,-932,14.1,9.3,-17.9,14.5,9.2,-17.7,0.57,2.03,-15.6,21.0
2016-10-30 00:32:00,0.0,1.94912,0.00033,404.673,0.037,0.1968,0.0015,140.000,45.000,31231.84171,1.95289,405.637,30.306,45.073,45.000,0.00,0.07,-272.86,-272.89,0,509,-932,14.1,9.3,-17.9,14.5,9.2,-17.7,0.57,1.92,-15.6,21.0
2016-10-30 00:33:00,0.0,1.94947,0.00041,404.670,0.022,0.1971,0.0016,139.999,45.000,31232.74190,1.95329,405.634,30.312,45.073,45.000,0.00,0.07,-272.85,-272.88,0,509,-932,14.1,9.3,-17.9,14.5,9.2,-17.7,0.57,1.94,-15.6,21.0
2016-10-30 00:34:00,0.0,1.94899,0.00042,404.656,0.029,0.1958,0.0019,139.999,45.000,31233.85469,1.95275,405.614,30.313,45.073,45.000,0.00,0.07,-272.85,-272.87,0,509,-932,14.1,9.3,-17.9,14.5,9.2,-17.7,0.57,2.07,-15.6,21.0
2016-10-30 00:35:00,0.0,1.94934,0.00033,404.651,0.040,0.1962,0.0014,140.001,45.000,31232.43762,1.95313,405.610,30.308,45.073,45.000,0.00,0.07,-272.85,-272.88,-0,509,-932,14.1,9.3,-18.0,14.5,9.2,-17.7,0.57,2.08,-15.6,21.0
2016-10-30 00:36:00,0.0,1.94949,0.00035,404.687,0.038,0.1962,0.0015,140.000,45.000,31232.56517,1.95326,405.645,30.308,45.073,45.000,0.00,0.07,-272.84,-272.89,-0,509,-932,14.1,9.3,-18.0,14.5,9.2,-17.7,0.57,1.96,-15.6,21.0
2016-10-30 00:37:00,0.0,1.94935,0.00035,404.692,0.026,0.1959,0.0017,139.999,45.000,31231.31768,1.95314,405.649,30.312,45.073,45.000,0.00,0.07,-272.84,-272.89,-0,509,-932,14.1,9.3,-18.0,14.5,9.2,-17.7,0.56,1.91,-15.6,21.0
2016-10-30 00:38:00,0.0,1.94959,0.00039,404.696,0.024,0.1940,0.0022,139.997,45.000,31229.39602,1.95333,405.645,30.312,45.073,45.000,0.00,0.07,-272.85,-272.88,0,509,-932,14.1,9.2,-18.0,14.5,9.1,-17.8,0.57,2.02,-15.6,21.0
2016-10-30 00:39:00,0.0,1.94933,0.00038,404.721,0.033,0.1941,0.0013,139.998,45.000,31230.68901,1.95307,405.669,30.314,45.073,45.000,0.00,0.07,-272.86,-272.88,0,509,-932,14.1,9.2,-18.1,14.5,9.1,-17.8,0.57,2.09,-15.6,21.0
2016-10-30 00:40:00,0.0,1.94931,0.00042,404.710,0.040,0.1937,0.0022,140.000,45.000,31229.47382,1.95302,405.658,30.313,45.073,45.000,0.00,0.07,-272.84,-272.88,0,509,-932,14.1,9.2,-18.1,14.5,9.1,-17.9,0.57,2.00,-15.6,21.0
2016-10-30 00:41:00,0.0,1.94951,0.00041,404.711,0.030,0.1943,0.0017,140.000,45.000,31228.69611,1.95326,405.661,30.300,45.073,45.000,0.00,0.07,-272.85,-272.88,-0,509,-932,14.1,9.2,-18.1,14.5,9.1,-17.8,0.57,1.91,-15.6,21.0
2016-10-30 00:42:00,0.0,1.94935,0.00044,404.742,0.043,0.1934,0.0017,140.000,45.000,31228.06808,1.95310,405.687,30.280,45.073,45.000,0.00,0.07,-272.86,-272.87,-0,509,-932,14.1,9.2,-18.1,14.5,9.1,-17.9,0.57,1.98,-15.6,21.0
2016-10-30 00:43:00,0.0,1.94945,0.00035,404.737,0.032,0.1923,0.0015,139.997,45.000,31227.42985,1.95312,405.676,30.283,45.073,45.000,0.00,0.07,-272.85,-272.88,-0,509,-932,14.1,9.2,-18.1,14.5,9.1,-17.9,0.57,2.08,-15.6,21.0
2016-10-30 00:44:00,0.0,1.94965,0.00041,404.742,0.034,0.1916,0.0016,140.001,45.000,31227.12082,1.95335,405.679,30.296,45.073,45.000,0.00,0.07,-272.84,-272.87,0,509,-932,14.1,9.1,-18.2,14.5,9.0,-17.9,0.57,2.05,-15.6,20.9
2016-10-30 00:45:00,0.0,1.94980,0.00040,404.730,0.035,0.1932,0.0016,139.999,45.000,31225.16104,1.95351,405.674,30.311,45.073,45.000,0.00,0.07,-272.84,-272.89,0,509,-932,14.0,9.1,-18.2,14.5,9.1,-17.9,0.57,1.91,-15.6,20.9
2016-10-30 00:46:00,0.0,1.94991,0.00036,404.738,0.022,0.1931,0.0019,140.000,45.000,31226.47468,1.95362,405.684,30.313,45.073,45.000,0.00,0.07,-272.85,-272.89,0,509,-932,14.0,9.2,-18.1,14.5,9.1,-17.9,0.56,1.96,-15.6,20.9
2016-10-30 00:47:00,0.0,1.94998,0.00030,404.717,0.038,0.1957,0.0018,139.999,45.000,31224.99228,1.95377,405.671,30.327,45.073,45.000,0.00,0.07,-272.84,-272.88,-0,509,-932,14.1,9.3,-18.0,14.5,9.1,-17.8,0.56,2.08,-15.6,21.0
2016-10-30 00:48:00,0.0,1.94974,0.00043,404.753,0.041,0.1946,0.0018,140.001,45.000,31226.25963,1.95349,405.705,30.337,45.073,45.000,0.00,0.07,-272.84,-272.88,-0,509,-932,14.1,9.3,-18.0,14.5,9.2,-17.8,0.57,2.05,-15.6,20.9
2016-10-30 00:49:00,0.0,1.94988,0.00037,404.717,0.035,0.1952,0.0021,139.998,45.000,31225.34796,1.95365,405.672,30.329,45.073,45.000,0.00,0.07,-272.85,-272.89,-0,509,-932,14.1,9.2,-18.0,14.5,9.2,-17.8,0.57,1.93,-15.6,20.9
2016-10-30 00:50:00,0.0,1.94998,0.00034,404.701,0.036,0.1959,0.0019,140.001,45.000,31223.83429,1.95375,405.659,30.336,45.073,45.000,0.00,0.07,-272.85,-272.88,0,509,-932,14.1,9.3,-18.0,14.5,9.2,-17.8,0.56,1.94,-15.6,20.9
2016-10-30 00:51:00,0.0,1.94999,0.00035,404.713,0.026,0.1960,0.0020,140.001,45.000,31224.57262,1.95378,405.671,30.334,45.073,45.000,0.00,0.07,-272.85,-272.88,0,509,-932,14.1,9.3,-18.0,14.5,9.2,-17.8,0.56,2.06,-15.6,20.9
2016-10-30 00:52:00,0.0,1.94980,0.00042,404.711,0.041,0.1947,0.0014,140.000,45.000,31226.31546,1.95356,405.664,30.340,45.073,45.000,0.00,0.07,-272.86,-272.89,-0,509,-932,14.0,9.2,-18.0,14.5,9.2,-17.8,0.57,2.06,-15.6,20.9
2016-10-30 00:53:00,0.0,1.94984,0.00037,404.715,0.038,0.1957,0.0019,140.000,45.000,31224.82468,1.95365,405.671,30.373,45.073,45.000,0.00,0.07,-272.84,-272.89,-0,509,-932,14.0,9.3,-18.0,14.5,9.2,-17.8,0.57,1.95,-15.6,20.9
2016-10-30 00:54:00,0.0,1.94980,0.00035,404.705,0.026,0.1985,0.0015,140.001,45.000,31225.41907,1.95358,405.675,30.362,45.073,45.000,0.00,0.07,-272.84,-272.88,-0,509,-932,14.0,9.3,-17.9,14.5,9.2,-17.7,0.57,1.93,-15.6,21.0
2016-10-30 00:55:00,0.0,1.94981,0.00037,404.707,0.037,0.1984,0.0014,139.999,45.000,31225.48106,1.95363,405.677,30.338,45.073,45.000,0.00,0.07,-272.85,-272.88,0,509,-932,14.1,9.4,-17.9,14.5,9.3,-17.7,0.57,2.04,-15.6,21.0
2016-10-30 00:56:00,0.0,1.94970,0.00030,404.716,0.034,0.1979,0.0018,140.000,45.000,31226.64064,1.95353,405.684,30.320,45.073,45.000,0.00,0.07,-272.85,-272.88,0,509,-932,14.1,9.4,-17.8,14.5,9.3,-17.6,0.57,2.08,-15.6,21.0
2016-10-30 00:57:00,0.0,1.94986,0.00040,404.702,0.023,0.1988,0.0022,140.000,45.000,31226.04437,1.95368,405.673,30.325,45.073,45.000,0.00,0.07,-272.84,-272.87,0,509,-932,14.1,9.4,-17.8,14.5,9.3,-17.6,0.57,1.96,-15.6,21.0
2016-10-30 00:58:00,0.0,1.94985,0.00042,404.718,0.030,0.1992,0.0012,140.000,45.000,31226.57287,1.95370,405.692,30.313,45.073,45.000,0.00,0.07,-272.84,-272.88,-0,509,-932,14.1,9.4,-17.8,14.5,9.3,-17.6,0.57,1.91,-15.6,21.0
2016-10-30 00:59:00,0.0,1.94923,0.00037,404.685,0.032,0.2037,0.0023,140.000,45.000,31225.64457,1.95317,405.681,30.313,45.073,45.000,0.00,0.07,-272.85,-272.88,-0,509,-932,14.1,9.6,-17.6,14.5,9.4,-17.5,0.56,2.03,-15.6,21.0
2016-10-30 01:00:00,0.0,1.94952,0.00033,404.672,0.026,0.2039,0.0018,139.998,45.000,31223.52722,1.95345,405.669,30.310,45.073,45.000,0.00,0.07,-272.84,-272.88,-0,509,-932,14.0,9.6,-17.5,14.5,9.5,-17.3,0.57,2.09,-15.6,20.9
2016-10-30 01:01:00,0.0,1.94956,0.00039,404.692,0.040,0.1997,0.0021,140.001,45.000,31223.32826,1.95336,405.668,30.309,45.073,45.000,0.00,0.07,-272.84,-272.88,0,509,-932,14.0,9.5,-17.7,14.5,9.4,-17.4,0.57,1.98,-15.6,21.0
2016-10-30 01:02:00,0.0,1.94971,0.00043,404.722,0.039,0.1974,0.0013,139.999,45.000,31224.73856,1.95355,405.687,30.310,45.073,45.000,0.00,0.07,-272.85,-272.89,0,509,-932,14.1,9.4,-17.9,14.5,9.3,-17.6,0.57,1.91,-15.6,20.9
2016-10-30 01:03:00,0.0,1.94967,0.00041,404.734,0.033,0.1985,0.0011,140.002,45.000,31224.44238,1.95349,405.705,30.305,45.073,45.000,0.00,0.07,-272.85,-272.88,-0,509,-932,14.1,9.4,-17.9,14.5,9.3,-17.6,0.56,2.02,-15.6,20.9
2016-10-30 01:04:00,0.0,1.95008,0.00050,404.729,0.030,0.2009,0.0021,140.002,45.000,31224.72537,1.95395,405.711,30.307,45.073,45.000,0.00,0.07,-272.84,-272.88,-0,509,-932,14.1,9.5,-17.7,14.5,9.3,-17.6,0.57,2.08,-15.6,20.9
2016-10-30 01:05:00,0.0,1.94981,0.00034,404.717,0.030,0.2021,0.0016,140.000,45.000,31225.26164,1.95373,405.704,30.313,45.073,45.000,0.00,0.07,-272.84,-272.88,0,509,-932,14.1,9.5,-17.6,14.5,9.4,-17.5,0.57,1.99,-15.6,21.0
2016-10-30 01:06:00,0.0,1.94987,0.00035,404.720,0.046,0.2040,0.0015,139.999,45.000,31224.27570,1.95378,405.719,30.308,45.073,45.000,0.00,0.07,-272.86,-272.88,0,509,-932,14.1,9.6,-17.6,14.5,9.5,-17.4,0.57,1.91,-15.6,21.0
2016-10-30 01:07:00,0.0,1.94972,0.00046,404.704,0.033,0.2069,0.0013,139.999,45.000,31224.65625,1.95369,405.715,30.312,45.073,45.000,0.00,0.07,-272.85,-272.87,1,509,-932,14.1,9.7,-17.4,14.5,9.6,-17.3,0.57,2.00,-15.6,21.0
2016-10-30 01:08:00,0.0,1.94958,0.00034,404.703,0.030,0.2072,0.0017,140.001,45.000,31225.36532,1.95362,405.717,30.313,45.073,45.000,0.00,0.07,-272.85,-272.87,0,509,-932,14.1,9.8,-17.4,14.5,9.6,-17.2,0.57,2.09,-15.6,20.9
2016-10-30 01:09:00,0.0,1.94967,0.00037,404.676,0.040,0.2089,0.0019,140.001,45.000,31224.46501,1.95368,405.697,30.305,45.073,45.000,0.00,0.07,-272.86,-272.89,-0,509,-932,14.1,9.9,-17.2,14.5,9.7,-17.1,0.57,2.00,-15.6,21.0
2016-10-30 01:10:00,0.0,1.94964,0.00042,404.699,0.031,0.2073,0.0017,140.000,45.000,31224.81085,1.95365,405.713,30.287,45.073,45.000,0.00,0.07,-272.84,-272.88,-0,509,-932,14.1,9.8,-17.3,14.5,9.7,-17.1,0.57,1.91,-15.6,21.0
2016-10-30 01:11:00,0.0,1.94966,0.00032,404.694,0.035,0.2089,0.0021,140.000,45.000,31225.55582,1.95367,405.716,30.262,45.073,45.000,0.00,0.07,-272.84,-272.87,0,509,-932,14.1,9.8,-17.3,14.5,9.7,-17.1,0.57,1.99,-15.6,21.0
2016-10-30 01:12:00,0.0,1.94964,0.00035,404.701,0.026,0.2088,0.0014,140.000,45.000,31226.15248,1.95366,405.722,30.255,45.073,45.000,0.00,0.07,-272.85,-272.88,0,509,-932,14.1,9.8,-17.3,14.5,9.7,-17.1,0.57,2.09,-15.6,21.0
2016-10-30 01:13:00,0.0,1.94955,0.00046,404.708,0.033,0.2079,0.0015,140.001,45.000,31225.52513,1.95356,405.725,30.251,45.073,45.000,0.00,0.07,-272.84,-272.88,0,509,-932,14.1,9.8,-17.3,14.5,9.7,-17.1,0.57,2.01,-15.6,21.0
2016-10-30 01:14:00,0.0,1.94988,0.00040,404.723,0.038,0.2075,0.0017,140.000,45.000,31222.87606,1.95388,405.738,30.252,45.073,45.000,0.00,0.07,-272.84,-272.88,-0,509,-932,14.1,9.8,-17.4,14.5,9.7,-17.1,0.57,1.91,-15.6,21.0
2016-10-30 01:15:00,0.0,1.94956,0.00036,404.667,0.028,0.2084,0.0021,140.002,45.000,31225.08972,1.95358,405.687,30.250,45.073,45.000,0.00,0.07,-272.85,-272.88,-0,509,-932,14.1,9.8,-17.3,14.5,9.7,-17.1,0.57,1.99,-15.6,21.0
2016-10-30 01:16:00,0.0,1.94954,0.00040,404.704,0.036,0.2072,0.0020,140.001,45.000,31224.89388,1.95355,405.717,30.250,45.073,45.000,0.00,0.07,-272.85,-272.88,0,509,-932,14.1,9.8,-17.4,14.5,9.7,-17.1,0.56,2.09,-15.6,20.9
2016-10-30 01:17:00,0.0,1.94978,0.00039,404.696,0.033,0.2066,0.0020,140.001,45.000,31224.93826,1.95374,405.707,30.250,45.073,45.000,0.00,0.07,-272.84,-272.88,0,509,-932,14.1,9.7,-17.4,14.5,9.6,-17.2,0.57,2.02,-15.6,20.9
2016-10-30 01:18:00,0.0,1.94964,0.00033,404.692,0.033,0.2054,0.0017,140.000,45.000,31225.85410,1.95361,405.696,30.250,45.073,45.000,0.00,0.07,-272.85,-272.88,0,509,-932,14.1,9.7,-17.4,14.5,9.6,-17.2,0.57,1.91,-15.6,20.9
2016-10-30 01:19:00,0.0,1.94950,0.00027,404.697,0.036,0.2039,0.0019,139.999,45.000,31227.00809,1.95344,405.694,30.249,45.073,45.000,0.00,0.07,-272.86,-272.88,-0,509,-932,14.1,9.6,-17.5,14.5,9.6,-17.3,0.56,1.98,-15.6,20.9
2016-10-30 01:20:00,0.0,1.94964,0.00025,404.711,0.020,0.2052,0.0022,140.000,45.000,31226.95178,1.95360,405.715,30.250,45.073,45.000,0.00,0.07,-272.85,-272.88,-0,509,-932,14.1,9.7,-17.5,14.5,9.5,-17.3,0.57,2.09,-15.6,20.9
2016-10-30 01:21:00,0.0,1.94943,0.00048,404.701,0.027,0.2066,0.0016,140.002,45.000,31225.99362,1.95343,405.712,30.249,45.073,45.000,0.00,0.07,-272.84,-272.88,-0,509,-932,14.1,9.7,-17.4,14.5,9.6,-17.2,0.57,2.02,-15.6,21.0
2016-10-30 01:22:00,0.0,1.94937,0.00034,404.724,0.034,0.2038,0.0017,140.002,45.000,31227.33495,1.95329,405.719,30.250,45.073,45.000,0.00,0.07,-272.85,-272.89,0,509,-932,14.1,9.6,-17.5,14.5,9.6,-17.3,0.57,1.90,-15.6,21.0
2016-10-30 01:23:00,0.0,1.94974,0.00034,404.766,0.025,0.2005,0.0014,140.001,45.000,31226.39263,1.95358,405.746,30.245,45.073,45.000,0.00,0.07,-272.85,-272.88,0,509,-932,14.1,9.5,-17.7,14.5,9.4,-17.4,0.56,1.98,-15.6,21.0
2016-10-30 01:24:00,0.0,1.94981,0.00031,404.758,0.042,0.2016,0.0015,140.000,45.000,31224.91350,1.95371,405.746,30.224,45.073,45.000,0.00,0.07,-272.85,-272.87,-0,509,-932,14.1,9.5,-17.7,14.5,9.4,-17.5,0.57,2.10,-15.6,21.0
2016-10-30 01:25:00,0.0,1.94960,0.00038,404.746,0.026,0.2024,0.0014,140.002,45.000,31224.12794,1.95348,405.734,30.248,45.073,45.000,0.00,0.07,-272.84,-272.87,-1,509,-932,14.1,9.5,-17.6,14.5,9.4,-17.4,0.57,2.01,-15.6,21.0
2016-10-30 01:26:00,0.0,1.94981,0.00044,404.747,0.031,0.2012,0.0019,140.000,45.000,31225.08765,1.95368,405.732,30.248,45.073,45.000,0.00,0.07,-272.86,-272.89,-0,509,-932,14.1,9.5,-17.6,14.5,9.4,-17.4,0.57,1.91,-15.6,21.0
2016-10-30 01:27:00,0.0,1.94962,0.00034,404.766,0.032,0.2013,0.0018,140.001,45.000,31226.84713,1.95352,405.748,30.251,45.073,45.000,0.00,0.07,-272.84,-272.88,0,509,-932,14.1,9.5,-17.7,14.5,9.4,-17.5,0.56,1.98,-15.6,21.0
2016-10-30 01:28:00,0.0,1.94960,0.00034,404.810,0.033,0.2021,0.0020,139.998,45.000,31225.72540,1.95350,405.798,30.248,45.073,45.000,0.00,0.07,-272.84,-272.87,0,509,-932,14.1,9.6,-17.6,14.5,9.4,-17.4,0.57,2.10,-15.6,20.9
2016-10-30 01:29:00,0.0,1.94965,0.00026,404.785,0.031,0.2025,0.0022,140.000,45.000,31227.48860,1.95354,405.778,30.248,45.073,45.000,0.00,0.07,-272.85,-272.89,-0,509,-932,14.1,9.6,-17.6,14.5,9.5,-17.4,0.57,2.02,-15.6,20.9
2016-10-30 01:30:00,0.0,1.94964,0.00045,404.802,0.033,0.2017,0.0018,140.000,45.000,31226.54047,1.95354,405.788,30.248,45.073,45.000,0.00,0.07,-272.84,-272.89,-1,509,-932,14.1,9.5,-17.7,14.5,9.4,-17.5,0.57,1.91,-15.6,20.9
2016-10-30 01:31:00,0.0,1.94975,0.00052,404.815,0.034,0.2002,0.0027,139.999,45.000,31225.43282,1.95357,405.796,30.242,45.073,45.000,0.00,0.07,-272.84,-272.88,-0,509,-932,14.1,9.5,-17.7,14.5,9.4,-17.5,0.56,1.98,-15.6,20.9
2016-10-30 01:32:00,0.0,1.94993,0.00043,404.804,0.034,0.2009,0.0023,140.002,45.000,31225.39577,1.95383,405.785,30.227,45.073,45.000,0.00,0.07,-272.85,-272.88,-0,509,-932,14.1,9.5,-17.7,14.5,9.4,-17.5,0.56,2.09,-15.6,20.9
2016-10-30 01:33:00,0.0,1.94979,0.00030,404.817,0.046,0.2004,0.0019,140.002,45.000,31226.77064,1.95365,405.796,30.229,45.073,45.000,0.00,0.07,-272.85,-272.88,0,509,-932,14.1,9.5,-17.7,14.5,9.4,-17.5,0.57,2.03,-15.6,20.9
2016-10-30 01:34:00,0.0,1.94996,0.00029,404.843,0.032,0.1998,0.0015,140.001,45.000,31225.98457,1.95383,405.820,30.199,45.073,45.000,0.00,0.07,-272.84,-272.88,-0,509,-932,14.1,9.4,-17.8,14.5,9.3,-17.6,0.57,1.91,-15.6,20.9
2016-10-30 01:35:00,0.0,1.94987,0.00031,404.852,0.036,0.2006,0.0015,140.000,45.000,31227.86086,1.95374,405.835,30.197,45.073,45.000,0.00,0.07,-272.85,-272.87,-0,509,-932,14.1,9.5,-17.7,14.5,9.4,-17.5,0.56,1.97,-15.6,20.9
2016-10-30 01:36:00,0.0,1.94982,0.00034,404.810,0.038,0.2014,0.0017,139.998,45.000,31226.68588,1.95369,405.795,30.206,45.073,45.000,0.00,0.07,-272.86,-272.88,-0,509,-932,14.0,9.5,-17.7,14.5,9.4,-17.5,0.57,2.09,-15.6,20.9
2016-10-30 01:37:00,0.0,1.94988,0.00030,404.801,0.029,0.2021,0.0016,140.000,45.000,31226.21590,1.95377,405.790,30.228,45.073,45.000,0.00,0.07,-272.85,-272.88,-0,509,-932,14.1,9.6,-17.6,14.5,9.4,-17.4,0.57,2.02,-15.6,20.9
2016-10-30 01:38:00,0.0,1.94995,0.00033,404.804,0.042,0.2019,0.0022,140.000,45.000,31226.32845,1.95386,405.791,30.239,45.073,45.000,0.00,0.07,-272.84,-272.88,0,509,-932,14.0,9.6,-17.6,14.5,9.5,-17.4,0.57,1.91,-15.6,20.9
2016-10-30 01:39:00,0.0,1.94988,0.00042,404.800,0.029,0.2028,0.0016,139.998,45.000,31226.29216,1.95378,405.791,30.247,45.073,45.000,0.00,0.07,-272.85,-272.88,0,509,-932,14.1,9.6,-17.6,14.5,9.5,-17.4,0.56,1.98,-15.6,21.0
2016-10-30 01:40:00,0.0,1.94980,0.00044,404.820,0.030,0.2026,0.0014,140.001,45.000,31225.66644,1.95370,405.812,30.250,45.073,45.000,0.00,0.07,-272.85,-272.88,-0,509,-932,14.1,9.6,-17.6,14.5,9.5,-17.4,0.57,2.09,-15.6,21.0
2016-10-30 01:41:00,0.0,1.94989,0.00045,404.780,0.026,0.2030,0.0016,140.003,45.000,31226.33918,1.95382,405.774,30.248,45.073,45.000,0.00,0.07,-272.84,-272.88,-1,509,-932,14.1,9.6,-17.6,14.5,9.5,-17.4,0.57,2.02,-15.6,21.0
2016-10-30 01:42:00,0.0,1.94980,0.00037,404.778,0.027,0.2038,0.0015,140.000,45.000,31223.87622,1.95371,405.774,30.248,45.073,45.000,0.00,0.07,-272.85,-272.88,-0,509,-932,14.0,9.7,-17.5,14.5,9.5,-17.3,0.56,1.91,-15.6,20.9
2016-10-30 01:43:00,0.0,1.94997,0.00033,404.790,0.034,0.2046,0.0012,140.002,45.000,31224.99568,1.95391,405.790,30.250,45.073,45.000,0.00,0.07,-272.85,-272.88,0,509,-932,14.0,9.7,-17.5,14.5,9.5,-17.3,0.56,1.97,-15.6,20.9
2016-10-30 01:44:00,0.0,1.94980,0.00050,404.795,0.026,0.2026,0.0021,140.000,45.000,31223.89073,1.95372,405.786,30.255,45.073,45.000,0.00,0.07,-272.85,-272.88,-0,509,-932,14.0,9.6,-17.6,14.5,9.5,-17.4,0.57,2.10,-15.6,20.9
2016-10-30 01:45:00,0.0,1.94981,0.00042,404.802,0.032,0.2026,0.0017,139.999,45.000,31224.09925,1.95371,405.792,30.246,45.073,45.000,0.00,0.07,-272.85,-272.88,-0,509,-932,14.0,9.6,-17.6,14.5,9.5,-17.4,0.57,2.02,-15.6,20.9